SWA1229 KOAK-KSAN

Flight info

Callsign SWA1229
Flight time 1h 7m
Altitude 35000
Route CNDEL5 YYUNG LAX COMIX2
Aircraft B738/M-SDE2E3FGHIRWXY/LB1

Departure

Time 2026-04-26 05:13
Airport San Francisco Bay Oakland International Airport (KOAK)

Arrival

Time 2026-04-26 06:21
Airport San Diego International Airport (KSAN)
Time Latitude Longitude Altitude Speed Heading
2026-04-26 04:47 37.70958 -122.21316 13 ft 0 kts 121°
2026-04-26 05:03 37.70971 -122.21341 13 ft 4 kts 122°
2026-04-26 05:04 37.70986 -122.21368 13 ft 4 kts 144°
2026-04-26 05:04 37.71008 -122.21378 16 ft 4 kts 193°
2026-04-26 05:04 37.71025 -122.21369 14 ft 1 kts 217°
2026-04-26 05:04 37.71027 -122.21367 14 ft 0 kts 217°
2026-04-26 05:08 37.71026 -122.21368 14 ft 1 kts 217°
2026-04-26 05:08 37.70994 -122.21398 13 ft 8 kts 217°
2026-04-26 05:08 37.70950 -122.21440 13 ft 8 kts 217°
2026-04-26 05:08 37.70899 -122.21487 12 ft 10 kts 218°
2026-04-26 05:09 37.70872 -122.21562 12 ft 10 kts 268°
2026-04-26 05:09 37.70839 -122.21633 12 ft 10 kts 220°
2026-04-26 05:09 37.70788 -122.21687 13 ft 10 kts 219°
2026-04-26 05:09 37.70736 -122.21741 12 ft 9 kts 219°
2026-04-26 05:10 37.70681 -122.21784 11 ft 9 kts 187°
2026-04-26 05:10 37.70619 -122.21754 10 ft 12 kts 137°
2026-04-26 05:10 37.70556 -122.21660 10 ft 16 kts 128°
2026-04-26 05:10 37.70481 -122.21547 9 ft 18 kts 130°
2026-04-26 05:11 37.70397 -122.21425 6 ft 19 kts 136°
2026-04-26 05:11 37.70289 -122.21367 9 ft 15 kts 161°
2026-04-26 05:11 37.70244 -122.21360 8 ft 0 kts 190°
2026-04-26 05:11 37.70244 -122.21361 8 ft 0 kts 191°
2026-04-26 05:12 37.70207 -122.21383 8 ft 11 kts 219°
2026-04-26 05:12 37.70179 -122.21476 6 ft 13 kts 299°
2026-04-26 05:12 37.70250 -122.21582 5 ft 28 kts 310°
2026-04-26 05:12 37.70532 -122.22006 9 ft 97 kts 309°
2026-04-26 05:13 37.71099 -122.22872 12 ft 155 kts 303°
2026-04-26 05:13 37.71856 -122.23994 403 ft 173 kts 306°
2026-04-26 05:13 37.72613 -122.25153 1264 ft 166 kts 306°
2026-04-26 05:13 37.73333 -122.26256 1978 ft 169 kts 306°
2026-04-26 05:14 37.74178 -122.27522 2025 ft 205 kts 307°
2026-04-26 05:14 37.75161 -122.28982 2031 ft 228 kts 308°
2026-04-26 05:14 37.76228 -122.30558 2022 ft 246 kts 308°
2026-04-26 05:14 37.77291 -122.32136 2492 ft 254 kts 308°
2026-04-26 05:15 37.78433 -122.33842 3305 ft 254 kts 305°
2026-04-26 05:15 37.79144 -122.35851 4081 ft 251 kts 275°
2026-04-26 05:15 37.78936 -122.38035 4885 ft 254 kts 250°
2026-04-26 05:15 37.77951 -122.39911 5585 ft 262 kts 223°
2026-04-26 05:16 37.76350 -122.41050 6301 ft 271 kts 199°
2026-04-26 05:16 37.74487 -122.41567 6970 ft 277 kts 193°
2026-04-26 05:16 37.72570 -122.42006 7649 ft 282 kts 191°
2026-04-26 05:16 37.70620 -122.42438 8366 ft 287 kts 192°
2026-04-26 05:17 37.68650 -122.42873 9060 ft 294 kts 192°
2026-04-26 05:17 37.66631 -122.43329 9789 ft 294 kts 191°
2026-04-26 05:17 37.64604 -122.43794 9993 ft 296 kts 191°
2026-04-26 05:17 37.62565 -122.44268 10003 ft 299 kts 191°
2026-04-26 05:18 37.60547 -122.44736 10012 ft 300 kts 191°
2026-04-26 05:18 37.58489 -122.45216 10027 ft 300 kts 191°
2026-04-26 05:18 37.56426 -122.45701 10032 ft 301 kts 192°
2026-04-26 05:18 37.54361 -122.46187 10019 ft 302 kts 192°
2026-04-26 05:19 37.52304 -122.46672 10027 ft 301 kts 192°
2026-04-26 05:19 37.50257 -122.47128 10014 ft 301 kts 186°
2026-04-26 05:19 37.48192 -122.46817 10050 ft 302 kts 160°
2026-04-26 05:19 37.46261 -122.45620 10211 ft 321 kts 150°
2026-04-26 05:20 37.44249 -122.44156 10420 ft 344 kts 149°
2026-04-26 05:20 37.42151 -122.42586 10890 ft 355 kts 149°
2026-04-26 05:20 37.40019 -122.40986 11651 ft 358 kts 149°
2026-04-26 05:20 37.37870 -122.39384 12447 ft 361 kts 149°
2026-04-26 05:21 37.35690 -122.37768 13213 ft 365 kts 149°
2026-04-26 05:21 37.33512 -122.36162 13950 ft 369 kts 149°
2026-04-26 05:21 37.31278 -122.34522 14669 ft 374 kts 148°
2026-04-26 05:21 37.29021 -122.32872 15384 ft 378 kts 148°
2026-04-26 05:22 37.26731 -122.31199 16078 ft 383 kts 148°
2026-04-26 05:22 37.24401 -122.29500 16731 ft 390 kts 147°
2026-04-26 05:22 37.22035 -122.27776 17441 ft 395 kts 147°
2026-04-26 05:22 37.19645 -122.26036 18168 ft 398 kts 147°
2026-04-26 05:23 37.17237 -122.24286 18793 ft 402 kts 147°
2026-04-26 05:23 37.14804 -122.22518 19418 ft 406 kts 147°
2026-04-26 05:23 37.12352 -122.20739 20028 ft 409 kts 147°
2026-04-26 05:23 37.09880 -122.18947 20650 ft 412 kts 148°
2026-04-26 05:24 37.07380 -122.17136 21243 ft 416 kts 148°
2026-04-26 05:24 37.04852 -122.15306 21808 ft 420 kts 148°
2026-04-26 05:24 37.02344 -122.13491 22377 ft 424 kts 148°
2026-04-26 05:24 36.99773 -122.11633 22944 ft 428 kts 148°
2026-04-26 05:25 36.97186 -122.09764 23495 ft 431 kts 148°
2026-04-26 05:25 36.94565 -122.07873 23966 ft 435 kts 148°
2026-04-26 05:25 36.91938 -122.05978 24517 ft 435 kts 149°
2026-04-26 05:25 36.89308 -122.04083 25000 ft 437 kts 149°
2026-04-26 05:26 36.86659 -122.02176 25446 ft 440 kts 149°
2026-04-26 05:26 36.83996 -122.00260 25895 ft 443 kts 149°
2026-04-26 05:26 36.81352 -121.98360 26355 ft 445 kts 149°
2026-04-26 05:26 36.78658 -121.96425 26789 ft 447 kts 149°
2026-04-26 05:27 36.75949 -121.94481 27228 ft 450 kts 149°
2026-04-26 05:27 36.73232 -121.92533 27653 ft 452 kts 149°
2026-04-26 05:27 36.70501 -121.90576 28070 ft 454 kts 149°
2026-04-26 05:27 36.67745 -121.88602 28483 ft 456 kts 149°
2026-04-26 05:28 36.64983 -121.86627 28856 ft 458 kts 149°
2026-04-26 05:28 36.62229 -121.84658 29241 ft 461 kts 149°
2026-04-26 05:28 36.59424 -121.82655 29610 ft 463 kts 149°
2026-04-26 05:28 36.56626 -121.80659 29967 ft 465 kts 149°
2026-04-26 05:29 36.53820 -121.78658 30306 ft 467 kts 149°
2026-04-26 05:29 36.50998 -121.76648 30709 ft 466 kts 150°
2026-04-26 05:29 36.48182 -121.74644 31112 ft 465 kts 150°
2026-04-26 05:29 36.45407 -121.72671 31497 ft 465 kts 150°
2026-04-26 05:30 36.42599 -121.70677 31887 ft 464 kts 151°
2026-04-26 05:30 36.39796 -121.68686 32263 ft 464 kts 151°
2026-04-26 05:30 36.36991 -121.66697 32592 ft 465 kts 151°
2026-04-26 05:30 36.34177 -121.64703 32927 ft 465 kts 152°
2026-04-26 05:31 36.31356 -121.62705 33304 ft 465 kts 152°
2026-04-26 05:31 36.28545 -121.60716 33703 ft 464 kts 152°
2026-04-26 05:31 36.25742 -121.58734 34032 ft 464 kts 153°
2026-04-26 05:31 36.22935 -121.56754 34292 ft 464 kts 153°
2026-04-26 05:32 36.20131 -121.54778 34589 ft 463 kts 153°
2026-04-26 05:32 36.17330 -121.52801 34892 ft 463 kts 153°
2026-04-26 05:32 36.11730 -121.48866 34979 ft 467 kts 153°
2026-04-26 05:33 36.06095 -121.44894 34957 ft 462 kts 153°
2026-04-26 05:33 36.00523 -121.40976 34970 ft 462 kts 153°
2026-04-26 05:34 35.94912 -121.37045 34967 ft 464 kts 153°
2026-04-26 05:34 35.89373 -121.33171 34966 ft 466 kts 153°
2026-04-26 05:35 35.83724 -121.29224 34960 ft 467 kts 154°
2026-04-26 05:35 35.78151 -121.25337 34967 ft 468 kts 154°
2026-04-26 05:36 35.72426 -121.21350 34957 ft 468 kts 154°
2026-04-26 05:36 35.66757 -121.17409 34958 ft 467 kts 154°
2026-04-26 05:37 35.62054 -121.14142 34960 ft 466 kts 154°
2026-04-26 05:37 35.56412 -121.10232 34966 ft 465 kts 154°
2026-04-26 05:38 35.51139 -121.05631 34958 ft 470 kts 139°
2026-04-26 05:38 35.47049 -120.99373 34968 ft 474 kts 128°
2026-04-26 05:39 35.43263 -120.92689 34972 ft 474 kts 128°
2026-04-26 05:39 35.39491 -120.86070 34977 ft 474 kts 128°
2026-04-26 05:40 35.35703 -120.79523 34962 ft 474 kts 129°
2026-04-26 05:40 35.31860 -120.72934 34983 ft 475 kts 129°
2026-04-26 05:41 35.28006 -120.66345 34978 ft 476 kts 129°
2026-04-26 05:41 35.24143 -120.59750 34989 ft 478 kts 129°
2026-04-26 05:42 35.20260 -120.53131 34971 ft 479 kts 129°
2026-04-26 05:42 35.16390 -120.46545 34974 ft 481 kts 129°
2026-04-26 05:43 35.12477 -120.39898 34986 ft 482 kts 129°
2026-04-26 05:43 35.08554 -120.33247 34986 ft 482 kts 129°
2026-04-26 05:44 35.04624 -120.26596 34975 ft 483 kts 130°
2026-04-26 05:44 35.00688 -120.19949 34984 ft 483 kts 130°
2026-04-26 05:45 34.96748 -120.13308 34975 ft 483 kts 130°
2026-04-26 05:45 34.92799 -120.06663 34979 ft 483 kts 130°
2026-04-26 05:46 34.88880 -120.00081 34965 ft 482 kts 130°
2026-04-26 05:46 34.84942 -119.93480 34954 ft 481 kts 130°
2026-04-26 05:47 34.81011 -119.86910 34977 ft 480 kts 130°
2026-04-26 05:47 34.77074 -119.80343 34956 ft 479 kts 131°
2026-04-26 05:48 34.73169 -119.73825 34964 ft 478 kts 131°
2026-04-26 05:48 34.69244 -119.67287 34965 ft 479 kts 131°
2026-04-26 05:49 34.63319 -119.57452 34949 ft 482 kts 131°
2026-04-26 05:50 34.59350 -119.50879 34952 ft 483 kts 131°
2026-04-26 05:50 34.55371 -119.44300 34935 ft 484 kts 131°
2026-04-26 05:51 34.51412 -119.37767 34946 ft 482 kts 132°
2026-04-26 05:51 34.47408 -119.31254 34936 ft 481 kts 131°
2026-04-26 05:52 34.43459 -119.24711 34942 ft 480 kts 132°
2026-04-26 05:52 34.39501 -119.18183 34963 ft 480 kts 132°
2026-04-26 05:53 34.35562 -119.11715 34972 ft 480 kts 132°
2026-04-26 05:53 34.31587 -119.05221 34964 ft 480 kts 132°
2026-04-26 05:54 34.27614 -118.98743 34941 ft 480 kts 133°
2026-04-26 05:54 34.23627 -118.92247 34977 ft 480 kts 133°
2026-04-26 05:55 34.19643 -118.85767 34967 ft 481 kts 133°
2026-04-26 05:55 34.15641 -118.79268 34977 ft 482 kts 133°
2026-04-26 05:56 34.11653 -118.72807 34594 ft 487 kts 134°
2026-04-26 05:56 34.09622 -118.69524 34014 ft 487 kts 134°
2026-04-26 05:56 34.07594 -118.66243 33333 ft 488 kts 133°
2026-04-26 05:56 34.05561 -118.62955 32673 ft 487 kts 133°
2026-04-26 05:57 34.03543 -118.59691 32221 ft 482 kts 133°
2026-04-26 05:57 34.01548 -118.56470 31764 ft 477 kts 133°
2026-04-26 05:57 33.99567 -118.53275 31289 ft 473 kts 133°
2026-04-26 05:57 33.97600 -118.50111 30827 ft 469 kts 133°
2026-04-26 05:58 33.95673 -118.47011 30347 ft 466 kts 134°
2026-04-26 05:58 33.93738 -118.43904 29890 ft 462 kts 134°
2026-04-26 05:58 33.91719 -118.40929 29278 ft 456 kts 139°
2026-04-26 05:58 33.89580 -118.38139 28765 ft 449 kts 141°
2026-04-26 05:59 33.87426 -118.35436 28294 ft 444 kts 141°
2026-04-26 05:59 33.85303 -118.32774 27809 ft 439 kts 141°
2026-04-26 05:59 33.83209 -118.30113 27336 ft 436 kts 140°
2026-04-26 05:59 33.81151 -118.27464 26885 ft 432 kts 140°
2026-04-26 06:00 33.79115 -118.24829 26430 ft 428 kts 140°
2026-04-26 06:00 33.77210 -118.22363 26025 ft 424 kts 140°
2026-04-26 06:00 33.75224 -118.19764 25651 ft 420 kts 140°
2026-04-26 06:00 33.73265 -118.17185 25193 ft 417 kts 140°
2026-04-26 06:01 33.71337 -118.14644 24782 ft 414 kts 140°
2026-04-26 06:01 33.69401 -118.12097 24366 ft 411 kts 140°
2026-04-26 06:01 33.67475 -118.09567 23922 ft 410 kts 140°
2026-04-26 06:01 33.65551 -118.07045 23474 ft 408 kts 140°
2026-04-26 06:02 33.63643 -118.04545 22966 ft 405 kts 140°
2026-04-26 06:02 33.61744 -118.02059 22495 ft 402 kts 140°
2026-04-26 06:02 33.59864 -117.99598 22083 ft 398 kts 140°
2026-04-26 06:02 33.58002 -117.97163 21652 ft 395 kts 140°
2026-04-26 06:03 33.56156 -117.94753 21231 ft 392 kts 140°
2026-04-26 06:03 33.54301 -117.92383 20829 ft 386 kts 142°
2026-04-26 06:03 33.52397 -117.90141 20447 ft 381 kts 143°
2026-04-26 06:03 33.50503 -117.87983 20044 ft 379 kts 144°
2026-04-26 06:04 33.48593 -117.85806 19636 ft 377 kts 143°
2026-04-26 06:04 33.46704 -117.83633 19223 ft 375 kts 143°
2026-04-26 06:04 33.44831 -117.81466 18823 ft 374 kts 143°
2026-04-26 06:04 33.42957 -117.79328 18392 ft 371 kts 144°
2026-04-26 06:05 33.41046 -117.77267 17965 ft 368 kts 145°
2026-04-26 06:05 33.39127 -117.75240 17527 ft 366 kts 145°
2026-04-26 06:05 33.37221 -117.73230 17100 ft 364 kts 145°
2026-04-26 06:05 33.35325 -117.71223 16695 ft 362 kts 144°
2026-04-26 06:06 33.33445 -117.69225 16291 ft 360 kts 144°
2026-04-26 06:06 33.31579 -117.67236 15891 ft 358 kts 144°
2026-04-26 06:06 33.29726 -117.65261 15500 ft 356 kts 144°
2026-04-26 06:06 33.27884 -117.63297 15112 ft 354 kts 144°
2026-04-26 06:07 33.26041 -117.61335 14993 ft 355 kts 144°
2026-04-26 06:07 33.24219 -117.59397 14960 ft 346 kts 144°
2026-04-26 06:07 33.22472 -117.57550 14946 ft 333 kts 145°
2026-04-26 06:07 33.20772 -117.55759 14944 ft 319 kts 145°
2026-04-26 06:08 33.19140 -117.54041 14945 ft 306 kts 146°
2026-04-26 06:08 33.17573 -117.52394 14945 ft 295 kts 146°
2026-04-26 06:08 33.16044 -117.50789 14970 ft 294 kts 146°
2026-04-26 06:08 33.14437 -117.49118 15002 ft 320 kts 146°
2026-04-26 06:09 33.12682 -117.47402 14982 ft 327 kts 151°
2026-04-26 06:09 33.10826 -117.45862 14977 ft 324 kts 153°
2026-04-26 06:09 33.08961 -117.44355 14970 ft 323 kts 153°
2026-04-26 06:09 33.07119 -117.42846 14888 ft 320 kts 152°
2026-04-26 06:10 33.05291 -117.41334 14617 ft 318 kts 152°
2026-04-26 06:10 33.03489 -117.39833 14217 ft 321 kts 152°
2026-04-26 06:10 33.01658 -117.38297 13876 ft 321 kts 152°
2026-04-26 06:10 32.99840 -117.36769 13562 ft 319 kts 151°
2026-04-26 06:11 32.98037 -117.35254 13242 ft 315 kts 151°
2026-04-26 06:11 32.96255 -117.33758 12762 ft 314 kts 151°
2026-04-26 06:11 32.94475 -117.32268 12243 ft 311 kts 150°
2026-04-26 06:11 32.92712 -117.30792 11735 ft 308 kts 150°
2026-04-26 06:12 32.90967 -117.29334 11236 ft 305 kts 150°
2026-04-26 06:12 32.89235 -117.27894 10755 ft 302 kts 150°
2026-04-26 06:12 32.87521 -117.26469 10274 ft 299 kts 149°
2026-04-26 06:12 32.85817 -117.25054 9784 ft 297 kts 149°
2026-04-26 06:13 32.84128 -117.23652 9242 ft 295 kts 149°
2026-04-26 06:13 32.82456 -117.22254 8734 ft 293 kts 147°
2026-04-26 06:13 32.81101 -117.20439 8190 ft 299 kts 120°
2026-04-26 06:13 32.80407 -117.18110 7751 ft 297 kts 107°
2026-04-26 06:14 32.79916 -117.15783 7374 ft 291 kts 106°
2026-04-26 06:14 32.79433 -117.13473 7018 ft 285 kts 106°
2026-04-26 06:14 32.78945 -117.11213 6677 ft 279 kts 107°
2026-04-26 06:14 32.78464 -117.09029 6506 ft 264 kts 107°
2026-04-26 06:15 32.78012 -117.06992 6383 ft 246 kts 107°
2026-04-26 06:15 32.77466 -117.05147 6229 ft 228 kts 118°
2026-04-26 06:15 32.76812 -117.03509 6104 ft 212 kts 119°
2026-04-26 06:15 32.76192 -117.01973 6010 ft 200 kts 119°
2026-04-26 06:16 32.75646 -117.00605 5980 ft 195 kts 119°
2026-04-26 06:16 32.75068 -116.99162 5979 ft 192 kts 122°
2026-04-26 06:16 32.74188 -116.98103 5978 ft 179 kts 163°
2026-04-26 06:16 32.73001 -116.97940 5988 ft 171 kts 198°
2026-04-26 06:17 32.71981 -116.98550 5985 ft 161 kts 226°
2026-04-26 06:17 32.71439 -116.99601 6002 ft 148 kts 246°
2026-04-26 06:17 32.70984 -117.00767 5663 ft 161 kts 246°
2026-04-26 06:17 32.70489 -117.02051 4976 ft 183 kts 246°
2026-04-26 06:18 32.69976 -117.03489 4246 ft 194 kts 254°
2026-04-26 06:18 32.70049 -117.05113 3490 ft 205 kts 285°
2026-04-26 06:18 32.70451 -117.06752 2782 ft 207 kts 282°
2026-04-26 06:18 32.70811 -117.08393 2061 ft 204 kts 284°
2026-04-26 06:19 32.71181 -117.09959 1685 ft 188 kts 284°
2026-04-26 06:19 32.71528 -117.11408 1376 ft 178 kts 284°
2026-04-26 06:19 32.71854 -117.12758 1173 ft 161 kts 285°
2026-04-26 06:19 32.72151 -117.13977 871 ft 149 kts 284°
2026-04-26 06:20 32.72425 -117.15118 627 ft 137 kts 284°
2026-04-26 06:20 32.72685 -117.16185 378 ft 131 kts 283°
2026-04-26 06:20 32.72922 -117.17181 175 ft 124 kts 284°
2026-04-26 06:20 32.73167 -117.18193 34 ft 131 kts 285°
2026-04-26 06:21 32.73401 -117.19147 22 ft 102 kts 286°
2026-04-26 06:21 32.73518 -117.19627 27 ft 28 kts 286°
2026-04-26 06:21 32.73535 -117.19751 29 ft 14 kts 257°
2026-04-26 06:21 32.73502 -117.19858 27 ft 5 kts 252°
2026-04-26 06:22 32.73496 -117.19878 26 ft 0 kts 253°
2026-04-26 06:23 32.73496 -117.19879 30 ft 0 kts 253°
2026-04-26 06:23 32.73491 -117.19898 31 ft 5 kts 253°
2026-04-26 06:23 32.73463 -117.19948 26 ft 7 kts 207°
2026-04-26 06:23 32.73401 -117.19967 28 ft 12 kts 188°
2026-04-26 06:24 32.73353 -117.19979 25 ft 2 kts 193°
2026-04-26 06:24 32.73322 -117.19986 25 ft 6 kts 186°
2026-04-26 06:24 32.73293 -117.20007 26 ft 4 kts 266°
2026-04-26 06:24 32.73302 -117.20035 28 ft 1 kts 281°
2026-04-26 06:25 32.73303 -117.20054 28 ft 3 kts 276°
2026-04-26 06:25 32.73304 -117.20066 24 ft 1 kts 275°
2026-04-26 06:25 32.73304 -117.20067 24 ft 0 kts 275°